Showing default

XINZHENGCHENG 01, 68414

Orbit data source: Space-Track

XINZHENGCHENG 01, 68414 is a Chinese payload satellite in LEO that was launched on Mon, 30 Mar 2026 UTC via a LIJIAN-2 launch vehicle from the Jiuquan Satellite Launch Center, China (JSC). Payload-class satellites include a variety of spacecraft equipped with specific instruments for various scientific and technological missions. These include communications satellites like Starlink; space stations such as the ISS; scientific satellites like the Hubble; Earth observation satellites from companies like Planet Labs, Umbra, and HawkEye 360; GPS; miniature CubeSats for education and research; and military/defense satellites.

Loading next visibility...
Identifier
68414, 2026-066C
Orbit
LEO
Country
Flag of CNCN / PRC
Related business
Manufacturer
ZHWK
Mission
Operational spacecraft
Bus & Motor
XZC1, Unknown motor
Mass
~100 kg wet, ~100 kg dry
Launch date (UTC)
2026-03-30 (3 months ago)
Launch vehicle
LIJIAN-2
Launch site
Jiuquan Satellite Launch Center, China (JSC)
Object type
Payload
Rocket body
Debris
Shape & HBR
Unknown shape, 0.8 m
Radar Cross Section
Medium (>0.1 m² and <1 m²)

Expand to show TLE details & history
Last TLE update: 1 day ago

TLE from 1 day ago
0 XINZHENGCHENG 01
1 68414U 26066C   26170.63980788  .00000660  00000-0  67363-4 0  9999
2 68414  84.9659 226.1682 0024101 243.1283 116.7477 14.88631911 12091
Epoch: 2026-06-19T15:21Z
TLE epoch observation values (Epoch: 2026-06-19T15:21:19.400Z)
Latitude
-0.00005°
Longitude
87.97147°
Altitude
612.919 km
Speed
7.549 km/s
True Right ascension
15h 04m 40s
True Declination
0° 00' 00"
Sunlit
Object was in full shadow at epoch
Visualization orbit readout
Latitude
Unknown
Longitude
Unknown
Altitude
Unknown
Speed
Unknown
Apparent Right ascension
Unknown
Apparent Declination
Unknown
Sunlit
N/A
Visualization observer readout
Local Sidereal Time
07:22:04
Azimuth
Unknown
Elevation
Unknown
Doppler factor
Unknown
Orbital elements
Apogee altitude
615.949 km
Perigee altitude
582.317 km
Semi-major axis
6,977.27 km
Eccentricity
0.00241
Inclination
84.9659°
RAAN
226.1682°
Arg. of periapsis
243.1283°
True anomaly
116.99399°
Mean anomaly
116.7477°
Eccentric anomaly
116.87088°
Mean motion
3.72404 °/min
Orbital period
96.67 mins
BSTAR
0.000067363
Loading maneuver chart data...
Computing Atmospheric mass density...
Loading historical data...
Loading historical data...
Loading historical data...
Loading historical data...
Loading historical data...
Loading historical data...
Loading historical data...
Other satellites on launch #66 in the year 2026 (2026-03-30 UTC)

Documentation

Showing up to 5 results
|